[[{"header":{"parameterUnit":"m.s-1","parameterCategory":1,"la1":30.2991,"la2":30.254,"lo1":-89.0895,"lo2":-89.0444,"dy":0.0017,"dx":0.0017,"nx":28,"ny":28,"refTime":"2023-04-03T21:00:00:Z","depth":0,"parameterNumber":2,"parameterNumberName":"U-component_of_WINDS"},"data":[0,0,0,0,0,0,0,0,0,0,0,0,0,0,0,0,0,0,0,0,0,0,0,0,0,0,0,0,0,0,0,0,0,0,0,0,0,0,0,0,0,0,0,0,0,0,0,0,0,0,0,0,0,0,0,0,0,0,1.4818,1.4818,0,1.4773,1.4772,1.4772,1.4741,1.4741,1.474,1.474,1.4694,1.4693,1.4692,0,0,0,0,0,0,0,0,0,0,0,0,0,1.4881,1.488,1.4818,1.4818,1.4817,1.4773,1.4772,1.4772,1.4741,1.4741,1.474,1.474,1.4694,1.4693,1.4692,0,0,0,0,0,0,0,0,0,0,0,0,0,1.4846,1.4879,1.4818,1.4797,1.4794,1.4773,1.4772,1.4771,1.4741,1.4741,1.474,1.474,1.4695,1.4693,1.4692,1.4689,0,0,1.4687,1.4686,0,0,0,0,0,0,0,0,1.4848,1.4844,1.48,1.4798,1.4795,1.4762,1.4777,1.4744,1.4741,1.4761,1.474,1.474,1.4717,1.4713,1.4706,1.4686,1.4684,1.4687,1.4686,1.4685,1.4685,0,0,0,0,0,0,0,1.4851,1.4846,1.48,1.48,1.4797,1.479,1.4784,1.4771,1.4741,1.4759,1.4757,1.4752,1.4715,1.4707,1.4704,1.4684,1.4687,1.4685,1.4684,1.4684,1.4661,1.4662,0,0,0,0,0,0,1.4856,1.4848,1.4802,1.4799,1.4821,1.4789,1.4783,1.4773,1.4741,1.4736,1.4752,1.4751,1.471,1.4706,1.4703,1.4698,1.4685,1.4684,1.4683,1.4661,1.4661,1.4662,0,0,0,0,0,0,1.4858,1.4852,1.4804,1.4823,1.4816,1.4788,1.4777,1.4772,1.4764,1.4736,1.4731,1.4749,1.471,1.4705,1.4693,1.4696,1.4683,1.4682,1.466,1.4661,1.4661,1.4687,0,0,0,0,0,0,1.486,1.4853,1.4851,1.4823,1.4815,1.4794,1.4777,1.4772,1.4761,1.4759,1.4732,1.4727,1.4709,1.4695,1.4691,1.4693,1.468,1.466,1.4661,1.4661,1.4686,1.4689,1.4691,0,0,0,0,0,1.4862,1.486,1.4851,1.4846,1.4812,1.4794,1.479,1.4769,1.4762,1.476,1.4742,1.4728,1.4696,1.4694,1.4689,1.4691,1.466,1.4661,1.4661,1.4685,1.4688,1.4691,0,0,0,0,0,0,1.4889,1.4856,1.4846,1.4834,1.4817,1.4789,1.4786,1.4773,1.4757,1.4755,1.473,1.4725,1.4715,1.4702,1.47,1.4687,1.4676,1.4676,1.4696,1.4699,1.4701,1.4704,1.4679,0,0,0,0,0,1.4893,1.4881,1.4853,1.4846,1.4838,1.4814,1.4805,1.4791,1.4772,1.4765,1.4746,1.4729,1.4715,1.4706,1.4692,1.4684,1.4679,1.4683,1.4686,1.4688,1.4688,1.4684,1.4686,1.4664,1.4664,1.4664,0,0,1.4903,1.4883,1.4877,1.4851,1.4836,1.4825,1.4808,1.4796,1.4787,1.4763,1.475,1.4736,1.4715,1.4706,1.4701,1.4695,1.4693,1.4689,1.4691,1.469,1.4685,1.4687,1.4689,1.4665,1.4664,1.4664,0,0,1.4914,1.4898,1.4891,1.4876,1.4854,1.4838,1.4837,1.4811,1.4801,1.4788,1.4769,1.4759,1.4736,1.4722,1.4712,1.472,1.4707,1.4716,1.4729,1.4725,1.4727,1.4728,1.4732,1.4734,1.4717,1.4717,1.4717,0,1.4928,1.491,1.4889,1.4878,1.4868,1.4846,1.4839,1.4826,1.4801,1.4794,1.4788,1.4759,1.4743,1.4731,1.4733,1.4725,1.4723,1.4719,1.4729,1.473,1.4731,1.4734,1.4735,1.4718,1.4718,1.4718,1.4718,0,1.4929,1.4917,1.4914,1.489,1.488,1.4871,1.4849,1.4841,1.4829,1.4814,1.4802,1.4782,1.4764,1.476,1.4747,1.4746,1.4743,1.4733,1.4722,1.4735,1.4737,1.4738,1.472,1.4719,1.4719,1.4719,0,0,1.4954,1.492,1.492,1.4909,1.4884,1.4875,1.4866,1.4849,1.4843,1.4826,1.4819,1.48,1.4791,1.478,1.4765,1.4763,1.4771,1.4753,1.4752,1.4757,1.477,1.4778,1.478,1.4763,1.4763,1.4763,1.4772,0,1.4962,1.4944,1.4926,1.4915,1.4904,1.4884,1.4877,1.4861,1.4848,1.4837,1.4822,1.4809,1.4798,1.4791,1.4787,1.4771,1.4774,1.477,1.4756,1.4755,1.4761,1.4781,1.4789,1.4798,1.4773,1.4773,1.4773,0,1.4967,1.4953,1.4941,1.4919,1.4914,1.4907,1.4891,1.4881,1.4863,1.4853,1.4842,1.4827,1.4818,1.4808,1.4795,1.4793,1.4786,1.4778,1.4778,1.4775,1.4765,1.4779,1.4801,1.4802,1.4774,1.4774,1.4774,0,1.4987,1.4965,1.4955,1.4947,1.4921,1.4917,1.4906,1.4888,1.4879,1.4865,1.4859,1.4844,1.4836,1.4825,1.4807,1.4801,1.4796,1.4785,1.4788,1.4789,1.4787,1.4788,1.4808,1.4784,1.4784,1.4784,1.4783,0,1.4997,1.4991,1.4964,1.4958,1.4952,1.4931,1.4925,1.4912,1.4897,1.4888,1.487,1.4863,1.484,1.483,1.4816,1.4808,1.4804,1.4796,1.4793,1.4798,1.4799,1.4793,1.4792,1.4784,1.4784,1.4784,1.4784,0,1.5018,1.4999,1.4988,1.4965,1.4959,1.4955,1.4935,1.4929,1.4915,1.4905,1.4901,1.4879,1.4867,1.4848,1.483,1.4821,1.4816,1.4809,1.4821,1.4819,1.4824,1.4824,1.4841,1.4842,1.4817,1.4817,1.4818,0,1.5025,1.502,1.4997,1.499,1.498,1.4969,1.4961,1.4941,1.4933,1.4914,1.491,1.4897,1.4885,1.4867,1.4849,1.4836,1.4829,1.4836,1.4827,1.4833,1.483,1.483,1.483,1.4838,1.4839,1.4839,1.4839,0,1.504,1.5032,1.502,1.5006,1.4997,1.4984,1.4971,1.4967,1.4945,1.4937,1.4924,1.4915,1.4898,1.4885,1.4869,1.4858,1.4845,1.4843,1.4843,1.4848,1.4855,1.4852,1.4827,1.4842,1.4842,1.4842,1.4841,1.4841,1.5054,1.505,1.5033,1.5021,1.5009,1.4998,1.4992,1.4978,1.4967,1.4951,1.4941,1.4929,1.4913,1.4891,1.4881,1.4872,1.4867,1.4867,1.4867,1.4867,1.4869,1.4857,1.4869,1.4869,1.4869,1.4869,1.4869,0,1.5069,1.5058,1.5047,1.503,1.5021,1.501,1.4996,1.4989,1.4979,1.4966,1.4955,1.4942,1.493,1.4912,1.4899,1.4895,1.4889,1.4893,1.4892,1.489,1.4875,1.4876,1.4898,1.4898,1.4898,1.4898,1.4898,1.4898,1.5075,1.5067,1.5057,1.5043,1.5032,1.5021,1.5014,1.5004,1.4993,1.4979,1.4969,1.4958,1.4943,1.4929,1.4918,1.4913,1.4909,1.4915,1.4908,1.4894,1.4891,1.4889,1.489,1.4914,1.4914,1.4924,1.4924,1.4925]},{"header":{"parameterUnit":"m.s-1","parameterCategory":1,"la1":30.2991,"la2":30.254,"lo1":-89.0895,"lo2":-89.0444,"dy":0.0017,"dx":0.0017,"nx":28,"ny":28,"refTime":"2023-04-03T21:00:00:Z","depth":0,"parameterNumber":3,"parameterNumberName":"V-component_of_WINDS"},"data":[0,0,0,0,0,0,0,0,0,0,0,0,0,0,0,0,0,0,0,0,0,0,0,0,0,0,0,0,0,0,0,0,0,0,0,0,0,0,0,0,0,0,0,0,0,0,0,0,0,0,0,0,0,0,0,0,0,0,5.0111,5.0112,0,5.0196,5.0197,5.0198,5.0214,5.0213,5.0213,5.0212,5.0297,5.03,5.0303,0,0,0,0,0,0,0,0,0,0,0,0,0,4.9962,4.9965,5.0111,5.0112,5.0113,5.0196,5.0197,5.0198,5.0214,5.0213,5.0213,5.0212,5.0296,5.03,5.0303,0,0,0,0,0,0,0,0,0,0,0,0,0,5.0035,4.9966,5.0111,5.0131,5.0134,5.0196,5.0197,5.0199,5.0214,5.0213,5.0212,5.0211,5.0295,5.0299,5.0304,5.0351,0,0,5.0317,5.0319,0,0,0,0,0,0,0,0,5.0031,5.0041,5.0127,5.013,5.0133,5.0194,5.0176,5.025,5.0215,5.0184,5.0212,5.0211,5.0263,5.027,5.0288,5.0355,5.0358,5.0317,5.032,5.0322,5.0323,0,0,0,0,0,0,0,5.0026,5.0037,5.0145,5.0128,5.0132,5.0136,5.0145,5.019,5.0228,5.0186,5.0188,5.0198,5.0265,5.0284,5.029,5.036,5.0317,5.0321,5.0324,5.0325,5.0472,5.0473,0,0,0,0,0,0,5.0017,5.0033,5.0142,5.0147,5.0079,5.014,5.015,5.0175,5.0228,5.0235,5.0199,5.0198,5.0277,5.0285,5.0294,5.0355,5.0322,5.0326,5.0328,5.0471,5.0472,5.0474,0,0,0,0,0,0,5.0014,5.0027,5.0139,5.0091,5.0105,5.0143,5.0172,5.0177,5.0197,5.0237,5.0244,5.0211,5.0277,5.0287,5.0337,5.0358,5.0328,5.0332,5.0469,5.0471,5.0473,5.0476,0,0,0,0,0,0,5.001,5.0026,5.0044,5.0091,5.0108,5.0181,5.0173,5.018,5.0205,5.0205,5.0251,5.0257,5.0277,5.0331,5.0342,5.0363,5.0335,5.0468,5.047,5.0473,5.0474,5.0477,5.048,0,0,0,0,0,5.0004,5.004,5.0045,5.0058,5.0131,5.0182,5.0192,5.0214,5.0206,5.0225,5.0251,5.0256,5.0353,5.0336,5.0348,5.0371,5.0467,5.047,5.0472,5.0472,5.0477,5.048,0,0,0,0,0,0,4.9993,5.0046,5.0052,5.0104,5.0139,5.0185,5.0209,5.0217,5.0254,5.0253,5.0278,5.0288,5.0337,5.0359,5.0338,5.0421,5.041,5.0415,5.0405,5.041,5.0413,5.0407,5.0339,0,0,0,0,0,4.9997,5.0034,5.0078,5.012,5.0137,5.017,5.0193,5.0208,5.0244,5.0258,5.0288,5.0323,5.0362,5.0387,5.0424,5.0477,5.0488,5.0499,5.0502,5.0505,5.051,5.0542,5.0548,5.0483,5.0483,5.0483,0,0,5.0004,5.0038,5.006,5.0119,5.0147,5.0186,5.0182,5.0222,5.0251,5.0264,5.0314,5.0337,5.0378,5.043,5.0455,5.045,5.053,5.0509,5.051,5.0514,5.0546,5.0552,5.0557,5.0485,5.0485,5.0485,0,0,5.0038,5.0067,5.0106,5.0136,5.0179,5.0202,5.0211,5.0257,5.0273,5.0324,5.0335,5.037,5.0435,5.0465,5.0488,5.0537,5.0544,5.0548,5.0566,5.0597,5.0602,5.0607,5.0626,5.0633,5.0553,5.0553,5.0553,0,5.0042,5.0101,5.0125,5.0166,5.0192,5.0207,5.0248,5.0275,5.0328,5.0346,5.034,5.0425,5.0453,5.0514,5.0526,5.0544,5.0557,5.0544,5.0599,5.0604,5.0609,5.0628,5.0635,5.0553,5.0553,5.0553,5.0553,0,5.0105,5.0146,5.0172,5.0226,5.0255,5.0295,5.0326,5.0352,5.0365,5.0388,5.044,5.0475,5.0521,5.0537,5.0548,5.06,5.0596,5.0594,5.0583,5.0615,5.0634,5.0641,5.0554,5.0554,5.0554,5.0553,0,0,5.0133,5.0202,5.0211,5.0237,5.0287,5.032,5.0361,5.0408,5.0431,5.0468,5.0505,5.0561,5.0561,5.0588,5.0603,5.063,5.067,5.0626,5.0627,5.0635,5.0732,5.0734,5.0742,5.0674,5.0675,5.0677,5.0729,0,5.0175,5.0251,5.0275,5.0339,5.0378,5.0394,5.0431,5.0466,5.0489,5.0526,5.0551,5.0592,5.0587,5.0604,5.0631,5.0659,5.069,5.0655,5.071,5.0711,5.0701,5.0751,5.0753,5.0802,5.0736,5.0738,5.0738,0,5.0234,5.0274,5.0342,5.0391,5.0408,5.0441,5.0487,5.0522,5.0563,5.0578,5.0609,5.0623,5.0668,5.0654,5.0718,5.0694,5.0717,5.0735,5.0737,5.0744,5.0728,5.0762,5.0817,5.0825,5.075,5.0749,5.0748,0,5.0251,5.0322,5.0373,5.0394,5.0451,5.0474,5.0499,5.0539,5.0566,5.0607,5.0625,5.0669,5.0694,5.0728,5.0754,5.0741,5.0817,5.0804,5.0832,5.0831,5.0848,5.0846,5.0909,5.086,5.0859,5.0859,5.0859,0,5.0296,5.0338,5.0382,5.0413,5.0461,5.0488,5.0534,5.056,5.0596,5.0633,5.0648,5.0683,5.0714,5.0753,5.0773,5.0824,5.0834,5.0849,5.0854,5.0849,5.0847,5.0865,5.0864,5.0861,5.0861,5.086,5.086,0,5.0324,5.0354,5.0411,5.0462,5.0475,5.0509,5.0552,5.0583,5.0608,5.0655,5.0667,5.0705,5.0752,5.0781,5.084,5.0854,5.0911,5.0914,5.0897,5.09,5.0927,5.0925,5.1006,5.1019,5.0958,5.0959,5.0959,0,5.0351,5.0384,5.0439,5.0466,5.0492,5.0534,5.0563,5.0591,5.0621,5.0672,5.0697,5.0745,5.0786,5.086,5.0893,5.0939,5.0944,5.0969,5.0951,5.0946,5.0948,5.0946,5.0951,5.0973,5.0973,5.0974,5.0974,0,5.0398,5.0413,5.0454,5.0502,5.0537,5.0575,5.0614,5.0635,5.067,5.0702,5.0751,5.0783,5.0844,5.0893,5.0942,5.0967,5.0978,5.0979,5.0989,5.0984,5.0975,5.0983,5.0908,5.0978,5.0977,5.0977,5.0977,5.0977,5.0428,5.046,5.0504,5.0551,5.0583,5.0619,5.0653,5.0682,5.0724,5.0777,5.0791,5.0843,5.0885,5.0953,5.098,5.1021,5.1018,5.103,5.1034,5.1037,5.1039,5.0967,5.103,5.103,5.103,5.103,5.103,0,5.0478,5.0508,5.0551,5.0606,5.0643,5.065,5.0693,5.0724,5.077,5.0809,5.0849,5.0907,5.0954,5.0992,5.1041,5.1067,5.1073,5.1079,5.1079,5.1085,5.1038,5.1027,5.1074,5.1074,5.1074,5.1074,5.1074,5.1074,5.0509,5.0563,5.0583,5.0654,5.0683,5.0736,5.076,5.0794,5.0826,5.089,5.0931,5.0955,5.0994,5.1047,5.1092,5.1101,5.112,5.1126,5.1137,5.1093,5.1088,5.1083,5.1073,5.1129,5.1129,5.118,5.1181,5.1181]}]]